Location: Newark
(13.8117°N, 3.6025°W)
Time: 12:36:21
(UTC+00:00)

Hubble Space Telescope - Pass Details

Date: 27 August 2019
Orbit: 536 x 540 km, 28.5° (Epoch: 16 September)

Event Time Altitude Azimuth Distance (km) Brightness Sun altitude
Rises 18:51:26 0° 300° (WNW) 2,666 6.0 -6.1°
Reaches altitude 10° 18:53:42 10° 303° (WNW) 1,775 4.8 -6.6°
Maximum altitude 18:57:46 65° 25° (NNE) 583 0.9 -7.6°
Enters shadow 19:01:43 11° 108° (ESE) 1,722 2.7 -8.5°
